Simultaneous Nadir Overpasses (SNOs) Predictions

Prediction of SNOs between NOAA-19 and TERRA Satellite Orbit:

Table of predicted SNOs for the next 14.0 days since TLE Epoch: 8/10/2019
Index Date (NOAA-19) Time (NOAA-19) Lat,Lon (NOAA-19) SZA (NOAA-19 ) Date (TERRA) Time (TERRA) Lat,Lon (TERRA) SZA (TERRA ) Distance(km) Time Diff (sec)
1 08/10/2019 23:29:39 78.64,-149.32 64.03 08/10/2019 23:29:26 78.64,-149.24 64.04 2.02 13
2 08/13/2019 05:02:59 -78.64, -52.59 115.30 08/13/2019 05:03:10 -78.65, -52.65 115.29 1.56 11
3 08/15/2019 10:36:27 78.65, 44.06 65.41 08/15/2019 10:36:52 78.68, 44.11 65.45 3.92 25
4 08/15/2019 11:27:22 -78.61,-148.41 114.60 08/15/2019 11:26:20 -78.65,-148.44 114.59 3.88 62
5 08/17/2019 16:09:47 -78.69, 140.58 113.86 08/17/2019 16:10:36 -78.69, 140.68 113.84 2.28 49
6 08/17/2019 17:00:51 78.65, -51.93 66.14 08/17/2019 17:00:03 78.64, -51.93 66.11 1.09 48
7 08/19/2019 21:43:15 78.68,-122.64 66.88 08/19/2019 21:44:18 78.71,-122.60 66.93 4.09 63
8 08/19/2019 22:34:10 -78.66, 44.73 113.12 08/19/2019 22:33:46 -78.68, 44.86 113.11 3.35 24
9 08/22/2019 04:07:39 78.68, 141.32 67.64 08/22/2019 04:07:29 78.66, 141.32 67.62 2.31 10




NCC Satellite Simultaneous Nadir Overpasses (SNOs) Prediction Service
